Weather History for Chicopee, MA

Change the Weather History Date:

Saturday, January 25, 2014

  Actual Average Record
Temperature  
Mean Temperature 22 °F -  
Max Temperature 32 °F 29 °F 41 °F (1997)
Min Temperature 13 °F 13 °F -9 °F (2009)
Degree Days  
Heating Degree Days 42    
Moisture  
Dew Point 17 °F    
Average Humidity 77    
Maximum Humidity 100    
Minimum Humidity 47    
Precipitation  
Precipitation 0.04 in - - ()
Sea Level Pressure  
Sea Level Pressure 29.53 in    
Wind  
Wind Speed 13 mph (SSW)    
Max Wind Speed 21 mph    
Max Gust Speed 31 mph    
Visibility 7 miles    
Events Snow    
Averages and records for this station are not official NWS values.
T = Trace of Precipitation, MM = Missing Value Source: NWS Daily Summary

Daily Weather History Graph

Daily Weather History Graph

Search for Another Location

Airport:

Trip Planner

Search our weather history database for the weather conditions in past years. The results will help you decide how hot, cold, wet, or windy it might be!

Date:

Astronomy

Jan. 25, 2014 Rise Set
Actual Time 7:09 AM EST 4:55 PM EST
Civil Twilight 6:39 AM EST 5:25 PM EST
Nautical Twilight 6:05 AM EST 5:59 PM EST
Astronomical Twilight 5:32 AM EST 6:32 PM EST
Moon 1:38 AM EST (1/25) 11:54 AM EST (1/25)
Length of Visible Light 10h 46m
Length of Day
9h 45m
Waning Crescent, 34% of the Moon is Illuminated
Jan 25
Waning Crescent
Jan 30
New
Feb 6
First Quarter
Feb 14
Full
Feb 22
Last Quarter

Hourly Weather History & Observations

Time (EST) Temp. Windchill Dew Point Humidity Pressure Visibility Wind Dir Wind Speed Gust Speed Precip Events Conditions
12:58 AM 14.9 °F 0.3 °F -1.1 °F 49% 30.01 in 10.0 mi SSW 13.8 mph 21.9 mph N/A   Mostly Cloudy
1:58 AM 15.4 °F 0.4 °F -1.1 °F 48% 29.98 in 10.0 mi South 15.0 mph 19.6 mph N/A   Overcast
2:58 AM 15.1 °F -0.1 °F -0.4 °F 50% 29.94 in 10.0 mi South 15.0 mph - N/A   Mostly Cloudy
3:58 AM 13.3 °F -0.5 °F 2.7 °F 63% 29.89 in 10.0 mi South 11.5 mph - N/A   Clear
4:58 AM 16.2 °F 3.2 °F 3.4 °F 57% 29.87 in 10.0 mi SSW 11.5 mph - N/A   Clear
5:58 AM 16.9 °F 6.4 °F 3.2 °F 55% 29.86 in 10.0 mi SSW 8.1 mph - N/A   Mostly Cloudy
6:58 AM 18.9 °F 6.5 °F 3.7 °F 52% 29.81 in 10.0 mi SSW 11.5 mph - N/A   Clear
7:58 AM 19.4 °F 7.9 °F 5.5 °F 55% 29.78 in 10.0 mi South 10.4 mph - N/A   Clear
8:58 AM 21.9 °F 11.0 °F 6.8 °F 52% 29.74 in 10.0 mi SSW 10.4 mph - N/A   Clear
9:58 AM 25.5 °F 14.9 °F 8.2 °F 48% 29.72 in 10.0 mi SW 11.5 mph - N/A   Clear
10:58 AM 28.6 °F 17.2 °F 10.8 °F 47% 29.67 in 10.0 mi SSW 15.0 mph - N/A   Partly Cloudy
11:58 AM 30.9 °F 19.1 °F 13.8 °F 49% 29.61 in 10.0 mi SSW 18.4 mph 27.6 mph N/A   Partly Cloudy
12:58 PM 31.1 °F 20.1 °F 15.8 °F 53% 29.55 in 10.0 mi SW 16.1 mph 25.3 mph N/A   Mostly Cloudy
1:58 PM 31.3 °F 20.3 °F 17.1 °F 56% 29.50 in 10.0 mi SSW 16.1 mph 26.5 mph N/A   Scattered Clouds
1:59 PM 32.0 °F 21.6 °F 17.6 °F 55% 29.48 in 2.2 mi SSW 15.0 mph 25.3 mph N/A Snow Light Snow
2:17 PM 30.2 °F 17.4 °F 21.2 °F 69% 29.47 in 1.5 mi SW 20.7 mph 31.1 mph N/A Snow Light Snow
2:25 PM 28.4 °F 15.1 °F 23.0 °F 80% 29.47 in 1.0 mi SW 20.7 mph 26.5 mph N/A Snow Light Snow
2:35 PM 28.4 °F 15.8 °F 24.8 °F 86% 29.46 in 3.0 mi SW 18.4 mph - N/A Snow Light Snow
2:41 PM 28.4 °F 16.6 °F 24.8 °F 86% 29.46 in 7.0 mi SW 16.1 mph 21.9 mph N/A Snow Light Snow
2:50 PM 28.4 °F 16.6 °F 21.2 °F 74% 29.46 in 10.0 mi SW 16.1 mph 23.0 mph N/A Snow Light Snow
2:58 PM 28.8 °F 15.5 °F 20.1 °F 70% 29.48 in 2.0 mi SW 20.7 mph 25.3 mph 0.00 in Snow Light Snow
3:09 PM 28.4 °F 16.6 °F 21.2 °F 74% 29.44 in 6.0 mi SW 16.1 mph 27.6 mph N/A Snow Light Snow
3:28 PM 28.4 °F 17.5 °F 19.4 °F 69% 29.44 in 10.0 mi SW 13.8 mph - N/A Snow Light Snow
3:58 PM 26.6 °F 15.2 °F 21.2 °F 80% 29.46 in 1.2 mi SW 13.8 mph - 0.00 in Snow Light Snow
4:58 PM 25.0 °F 14.8 °F 23.9 °F 96% 29.44 in 1.5 mi SSW 10.4 mph - 0.00 in Snow Light Snow
5:47 PM 24.8 °F 14.6 °F 24.8 °F 100% 29.39 in 2.0 mi SSW 10.4 mph - N/A Snow Light Snow
5:58 PM 24.4 °F 14.2 °F 23.9 °F 98% 29.42 in 2.5 mi SSW 10.4 mph - 0.00 in Snow Light Snow
6:58 PM 24.3 °F 13.9 °F 23.7 °F 98% 29.42 in 2.5 mi SSW 10.4 mph - 0.04 in Snow Light Snow
6:59 PM 24.8 °F 12.4 °F 23.0 °F 93% 29.39 in 2.5 mi SSW 15.0 mph - N/A Snow Light Snow
7:04 PM 24.8 °F 12.9 °F 23.0 °F 93% 29.39 in 3.0 mi SSW 13.8 mph 20.7 mph N/A Snow Light Snow
7:32 PM 23.0 °F 11.7 °F 23.0 °F 100% 29.38 in 10.0 mi SSW 11.5 mph - N/A Snow Light Snow
7:39 PM 23.0 °F 11.7 °F 23.0 °F 100% 29.38 in 10.0 mi SSW 11.5 mph - N/A Snow Light Snow
7:42 PM 23.0 °F 13.1 °F 23.0 °F 100% 29.38 in 9.0 mi SSW 9.2 mph - N/A Snow Light Snow
7:45 PM 23.0 °F 11.7 °F 23.0 °F 100% 29.38 in 9.0 mi SSW 11.5 mph - N/A Snow Light Snow
7:51 PM 23.0 °F 11.7 °F 23.0 °F 100% 29.38 in 9.0 mi SW 11.5 mph - N/A   Overcast
7:53 PM 23.0 °F 11.1 °F 23.0 °F 100% 29.38 in 9.0 mi SSW 12.7 mph - N/A   Overcast
7:58 PM 23.5 °F 11.8 °F 23.2 °F 99% 29.41 in 5.0 mi SSW 12.7 mph - 0.00 in Snow Light Snow
8:58 PM 23.2 °F 10.8 °F 21.9 °F 95% 29.40 in 6.0 mi SW 13.8 mph - 0.00 in Snow Light Snow
9:16 PM 23.0 °F 12.4 °F 21.2 °F 93% 29.36 in 10.0 mi SW 10.4 mph - N/A   Scattered Clouds
9:22 PM 23.0 °F 12.4 °F 21.2 °F 93% 29.36 in 10.0 mi SW 10.4 mph - N/A   Partly Cloudy
9:58 PM 22.5 °F 11.7 °F 20.1 °F 91% 29.39 in 10.0 mi SSW 10.4 mph - 0.00 in   Mostly Cloudy
10:58 PM 21.6 °F 11.3 °F 18.7 °F 89% 29.39 in 10.0 mi SW 9.2 mph - N/A   Mostly Cloudy
11:58 PM 17.4 °F 9.1 °F 15.6 °F 93% 29.40 in 10.0 mi SSW 5.8 mph - N/A   Clear